Regional Weather Roundup
Issued by NWS

Home | Current Version | Previous Version | Text Only | Print | Product List | Glossary Off
Versions: 1 2 3 4 5 6 7 8 9 10 11 12 13 14 15 16 17 18 19 20 21 22 23 24 25 26 27 28 29 30 31 32 33 34 35 36 37 38 39 40 41 42 43 44 45 46 47 48 49 50

000
ASUS43 KLOT 050708
RWRIL

ILLINOIS REGIONAL WEATHER ROUNDUP
NATIONAL WEATHER SERVICE CHICAGO/ROMEOVILLE IL
200 AM CDT TUE MAY 05 2015

NOTE: "FAIR" INDICATES FEW OR NO CLOUDS BELOW 12,000 FEET WITH NO
SIGNIFICANT WEATHER AND/OR OBSTRUCTIONS TO VISIBILITY.

* THESE STATIONS ARE NOT UNDER NWS QUALITY CONTROL. THEY ALSO MAY NOT
  REPORT WEATHER SUCH AS PRECIPITATION OR FOG.

ILZ001-002-007-009-015-016-024-050800-
NORTHWEST ILLINOIS

CITY           SKY/WX    TMP DP  RH WIND       PRES   REMARKS
MOLINE         LGT RAIN  62  60  93 E7        30.14R FOG
STERLING*      CLOUDY    55  52  88 E15       30.16R
SAVANNA*       CLOUDY    55  53  92 N5        30.17R
$$

ILZ003-004-008-010-011-017-018-050800-
NORTH CENTRAL ILLINOIS

CITY           SKY/WX    TMP DP  RH WIND       PRES   REMARKS
ROCKFORD       RAIN      52  46  80 E10       30.19F
FREEPORT*      RAIN      50  47  91 E12       30.19R
ROCHELLE*      RAIN      51  49  95 NE7       30.17F
DE KALB*       CLOUDY    50  45  81 NE9       30.18S
PERU*          LGT RAIN  58  55  91 NW5       30.16R
$$

ILZ005-006-012>014-019>023-050800-
NORTHEAST ILLINOIS

CITY           SKY/WX    TMP DP  RH WIND       PRES   REMARKS
CHICAGO-OHARE  LGT RAIN  53  45  74 N8        30.18S
CHICAGO-MIDWAY LGT RAIN  59  43  55 E3        30.18R
AURORA         LGT RAIN  53  45  74 NE9       30.16F
LANSING*       HVY RAIN  56  49  79 N5        30.19R
JOLIET*        LGT RAIN  58  55  89 E5        30.16F
WAUKEGAN       LGT RAIN  52  40  63 CALM      30.20R
DUPAGE AIRPORT CLOUDY    52  47  83 NE7       30.17F
KANKAKEE*      TSTM      62  61  97 E3        30.17S
WHEELING       LGT RAIN  52  44  74 N5        30.20R
MORRIS*        CLOUDY    58  54  85 E7        30.11F
ROMEOVILLE*    RAIN      54  49  83 E10       30.16F
NORTHERLY ISL    N/A     56  40  55 W3          N/A
$$

LMZ740>746-050800-
SOUTHERN LAKE MICHIGAN

STATION/POSITION SKY/WX   TEMP    WIND        PRES    VSBY  WAVE
                          AIR SEA DIR/SP/G                  HT/PER
                          (F)     (DEG/KT/KT) (MB)    (MI)  (FT/S)
HARRISON CRIB              48     340/  7/  9   N/A
BURNHAM HARBOR             54     330/  2/  9   N/A
CALUMET HARBOR             49     350/  3/  6   N/A
BURNS HARBOR               53      60/  7/  8 1022.0F
MICHIGAN CITY              58      60/  5/  6   N/A
MICHIGAN CITY 6N           52 50   90/  4/  4   N/A           1
ST. JOSEPH                 53 50   40/  6/  6   N/A           0
$$

ILZ025>027-034>036-040-047-049-050-058-095>099-050800-
WEST-CENTRAL ILLINOIS

CITY           SKY/WX    TMP DP  RH WIND       PRES   REMARKS
QUINCY         CLOUDY    66  60  81 NW16      30.13R
GALESBURG*     TSTM      64  62  96 NW5       30.12R
MACOMB*        CLOUDY    64  63  97 NW9       30.14R
JACKSONVILLE*  CLOUDY    74  56  54 SW12      30.10S
PITTSFIELD*    CLOUDY    71  56  59 S9        30.11S
$$

ILZ028>032-037-038-041>044-048-051>054-059>061-050800-
CENTRAL ILLINOIS

CITY           SKY/WX    TMP DP  RH WIND       PRES   REMARKS
PONTIAC        CLOUDY    64  63  97 SE12      30.12F
BLOOMINGTON    CLOUDY    64  61  90 SE8       30.11F
DECATUR        CLOUDY    69  58  67 S7        30.12F
PEORIA         LGT RAIN  66  61  84 E3        30.09F
LACON*         CLOUDY    62  60  93 N6        30.11R FOG
LINCOLN*       CLOUDY    65  61  85 S6        30.08F
SPRINGFIELD    CLOUDY    71  56  58 S14       30.10S
TAYLORVILLE    CLOUDY    68  54  60 S10       30.12S
$$

ILZ033-039-045-046-055>057-062-063-050800-
EAST-CENTRAL ILLINOIS

CITY           SKY/WX    TMP DP  RH WIND       PRES   REMARKS
CHAMPAIGN      CLOUDY    65  60  84 E7        30.14F
DANVILLE*      CLOUDY    63  59  87 NW7       30.14R
RANTOUL*       LGT RAIN  65  63  93 E8        30.14F
MATTOON        MOCLDY    69  55  60 S8        30.14S
PARIS*         MOCLDY    62  58  86 S7        30.16S
$$

ILZ079-100>102-050800-
SOUTHWEST ILLINOIS

CITY           SKY/WX    TMP DP  RH WIND       PRES   REMARKS
ALTON          MOCLDY    68  50  53 S8        30.14S
BELLEVILLE     MOCLDY    68  56  66 CALM      30.14R
CAHOKIA*       MOCLDY    70  54  56 S6        30.14R
SPARTA*        MOCLDY    67  53  60 S6        30.18S
$$

ILZ064>066-069>071-074>076-080>082-084>086-088>090-092>094-050800-
SOUTH-CENTRAL ILLINOIS

CITY           SKY/WX    TMP DP  RH WIND       PRES   REMARKS
CARBONDALE     PTCLDY    60  53  77 S5        30.17S
CAIRO*         CLEAR     63  53  71 S5        30.18F
EFFINGHAM*     MOCLDY    68  51  54 S6        30.17S
MARION         FAIR      64  54  68 S3        30.18S
MT. VERNON     PTCLDY   N/A N/A N/A S3        30.18S
CENTRALIA*     PTCLDY    65  53  63 S8        30.17R
SALEM*         PTCLDY    70  54  57 S9        30.17S
METROPOLIS*    CLEAR     63  54  74 CALM      30.18F
$$

ILZ067-068-072-073-078-083-087-091-050800-
SOUTHEAST ILLINOIS

CITY           SKY/WX    TMP DP  RH WIND       PRES   REMARKS
LAWRENCEVILLE  PTCLDY    63  55  75 S3        30.18S
FLORA*         PTCLDY    63  55  74 S6        30.18S
FAIRFIELD*     CLEAR     66  56  70 CALM      30.17S
HARRISBURG*    CLEAR     61  58  88 CALM      30.19F
ROBINSON*      PTCLDY    66  55  67 S7        30.17S
CARMI*         CLEAR     65  52  62 S6        30.18S
$$

ABBREVIATIONS USED IN REMARKS
   TC - TEMPERATURE IN CELSIUS
  WCI - WIND CHILL INDEX
   HX - HEAT INDEX
  VSB - VISIBILITY
$$



USA.gov is the U.S. government's official web portal to all federal, state and local government web resources and services.